﻿_id,日時,平均風速(m/s),平均風向,最大瞬間風速(m/s),最大風速時風向,気温(℃),湿度(%),10分間移動積算雨量(mm),1時間移動積算雨量(mm),日雨量(mm),累計雨量(mm)
1,2021-08-09T00:00:00,1.3,東,2.8,東北東,24.9,95.4,0,0,0.5,0.5
2,2021-08-09T00:01:00,1.5,東北東,2.8,東北東,24.9,95.4,0,0,0,0.5
3,2021-08-09T00:02:00,1.6,東北東,2.8,東北東,24.9,95.5,0,0,0,0.5
4,2021-08-09T00:03:00,1.6,東北東,2.8,東北東,24.9,95.6,0,0,0,0.5
5,2021-08-09T00:04:00,1.7,東北東,2.8,東北東,24.9,95.6,0,0,0,0.5
6,2021-08-09T00:05:00,1.8,東北東,2.8,東北東,25,95.6,0,0,0,0.5
7,2021-08-09T00:06:00,1.8,東北東,2.8,東北東,25,95.6,0,0,0,0.5
8,2021-08-09T00:07:00,1.9,東北東,2.8,東北東,25,95.5,0,0,0,0.5
9,2021-08-09T00:08:00,1.9,東,2.8,東北東,25.1,95.5,0,0,0,0.5
10,2021-08-09T00:09:00,1.9,東,2.8,東北東,25.1,95.5,0,0,0,0.5
11,2021-08-09T00:10:00,1.9,東,2.8,東南東,25.1,95.4,0,0,0,0.5
12,2021-08-09T00:11:00,1.8,東,2.8,東南東,25.1,95.3,0,0,0,0.5
13,2021-08-09T00:12:00,1.8,東,2.8,東南東,25.1,95.3,0,0,0,0.5
14,2021-08-09T00:13:00,1.7,東,2.8,東南東,25.1,95.2,0,0,0,0.5
15,2021-08-09T00:14:00,1.7,東,2.7,東南東,25.1,95.1,0,0,0,0.5
16,2021-08-09T00:15:00,1.8,東,2.9,東北東,25.1,95.1,0,0,0,0.5
17,2021-08-09T00:16:00,1.8,東,2.9,東北東,25.1,95,0,0,0,0.5
18,2021-08-09T00:17:00,1.8,東,2.9,東北東,25.1,95.1,0,0,0,0.5
19,2021-08-09T00:18:00,1.7,東北東,2.9,東北東,25.1,95.1,0,0,0,0.5
20,2021-08-09T00:19:00,1.7,東北東,2.9,東北東,25.1,95.1,0,0,0,0.5
21,2021-08-09T00:20:00,1.7,東北東,2.9,東北東,25,94.8,0,0,0,0.5
22,2021-08-09T00:21:00,1.7,東北東,2.9,東北東,25,94.9,0,0,0,0.5
23,2021-08-09T00:22:00,1.8,北東,2.9,東北東,24.9,94.8,0,0,0,0.5
24,2021-08-09T00:23:00,1.8,北東,2.9,東北東,24.9,95,0,0,0,0.5
25,2021-08-09T00:24:00,1.8,北東,2.9,東北東,24.9,95,0,0,0,0.5
26,2021-08-09T00:25:00,1.7,北東,2.9,北東,24.9,95.1,0,0,0,0.5
27,2021-08-09T00:26:00,1.6,北東,2.9,北東,24.9,95.1,0,0,0,0.5
28,2021-08-09T00:27:00,1.4,北東,2.6,北東,24.9,95.2,0,0,0,0.5
29,2021-08-09T00:28:00,1.4,北東,2.6,北東,24.9,95.3,0,0,0,0.5
30,2021-08-09T00:29:00,1.3,北東,2.6,北東,25,95.5,0,0,0,0.5
31,2021-08-09T00:30:00,1.2,北東,2.5,北東,25.1,95.5,0,0,0,0.5
32,2021-08-09T00:31:00,1,北東,2.3,北北東,25,95.2,0,0,0,0.5
33,2021-08-09T00:32:00,0.9,北東,2.2,北東,24.9,95.1,0,0,0,0.5
34,2021-08-09T00:33:00,0.9,北東,1.7,北東,24.9,95.2,0,0,0,0.5
35,2021-08-09T00:34:00,0.9,北東,2,北北東,24.9,95.2,0,0,0,0.5
36,2021-08-09T00:35:00,0.8,北東,2,北北東,24.9,95.2,0,0,0,0.5
37,2021-08-09T00:36:00,0.8,北東,2,北北東,24.9,95.4,0,0,0,0.5
38,2021-08-09T00:37:00,0.8,北東,2,北北東,25,95.5,0,0,0,0.5
39,2021-08-09T00:38:00,0.8,北東,2,北北東,25,95.3,0,0,0,0.5
40,2021-08-09T00:39:00,0.9,北東,2,北北東,25,95.1,0,0,0,0.5
41,2021-08-09T00:40:00,0.9,北東,2,北北東,25,95.1,0,0,0,0.5
42,2021-08-09T00:41:00,1,北東,2,北北東,25,95.2,0,0,0,0.5
43,2021-08-09T00:42:00,0.9,東北東,2,北北東,25,95.2,0,0,0,0.5
44,2021-08-09T00:43:00,0.9,東北東,2,北北東,25,95.3,0,0,0,0.5
45,2021-08-09T00:44:00,0.9,東北東,2,東北東,24.9,95,0,0,0,0.5
46,2021-08-09T00:45:00,0.9,東北東,2,東北東,24.9,95,0,0,0,0.5
47,2021-08-09T00:46:00,0.9,東北東,2,東北東,24.9,95.1,0,0,0,0.5
48,2021-08-09T00:47:00,0.9,東北東,2,東北東,24.9,95.1,0,0,0,0.5
49,2021-08-09T00:48:00,1,東北東,2.2,北東,24.9,95.2,0,0,0,0.5
50,2021-08-09T00:49:00,1.1,東北東,2.7,北東,24.9,95.3,0,0,0,0.5
51,2021-08-09T00:50:00,1.2,東北東,3,東北東,24.8,95.2,0,0,0,0.5
52,2021-08-09T00:51:00,1.3,東北東,3,東北東,24.8,95.2,0,0,0,0.5
53,2021-08-09T00:52:00,1.5,東北東,3.2,東北東,24.8,95.3,0,0,0,0.5
54,2021-08-09T00:53:00,1.7,東北東,3.3,東北東,24.8,95.3,0,0,0,0.5
55,2021-08-09T00:54:00,1.8,東北東,3.3,東北東,24.8,95.4,0,0,0,0.5
56,2021-08-09T00:55:00,2,東北東,4.3,北東,24.8,95.5,0,0,0,0.5
57,2021-08-09T00:56:00,2.2,東北東,4.3,北東,24.8,95.4,0,0,0,0.5
58,2021-08-09T00:57:00,2.3,東北東,4.3,北東,24.8,95.5,0,0,0,0.5
59,2021-08-09T00:58:00,2.4,東北東,4.3,北東,24.8,95.5,0,0,0,0.5
60,2021-08-09T00:59:00,2.4,東北東,4.3,北東,24.8,95.5,0,0,0,0.5
61,2021-08-09T01:00:00,2.3,東北東,4.3,北東,24.8,95.5,0,0,0,0.5
62,2021-08-09T01:01:00,2.3,東北東,4.3,北東,24.8,95.4,0,0,0,0.5
63,2021-08-09T01:02:00,2.2,東北東,4.3,北東,24.7,95.4,0,0,0,0.5
64,2021-08-09T01:03:00,2.1,東北東,4.3,北東,24.7,95.5,0,0,0,0.5
65,2021-08-09T01:04:00,2,東北東,4.3,北東,24.7,95.5,0,0,0,0.5
66,2021-08-09T01:05:00,2,東北東,3.5,北東,24.7,95.5,0,0,0,0.5
67,2021-08-09T01:06:00,2,東北東,3.3,東北東,24.6,95.5,0,0,0,0.5
68,2021-08-09T01:07:00,2,東北東,3.5,東北東,24.6,95.5,0,0,0,0.5
69,2021-08-09T01:08:00,2.1,東北東,3.5,東北東,24.6,95.6,0,0,0,0.5
70,2021-08-09T01:09:00,2.1,東北東,3.5,東北東,24.6,95.6,0,0,0,0.5
71,2021-08-09T01:10:00,2.2,東北東,3.5,東北東,24.6,95.7,0,0,0,0.5
72,2021-08-09T01:11:00,2.3,東北東,4.1,北東,24.5,95.7,0,0,0,0.5
73,2021-08-09T01:12:00,2.4,東北東,4.1,北東,24.5,95.7,0,0,0,0.5
74,2021-08-09T01:13:00,2.5,東北東,4.1,北東,24.5,95.8,0,0,0,0.5
75,2021-08-09T01:14:00,2.6,東北東,4.2,東北東,24.5,95.9,0,0,0,0.5
76,2021-08-09T01:15:00,2.7,東北東,4.5,東北東,24.5,95.9,0.5,0.5,0.5,1
77,2021-08-09T01:16:00,2.7,東北東,4.5,東北東,24.5,96,0.5,0.5,0.5,1
78,2021-08-09T01:17:00,2.8,東北東,4.6,東北東,24.5,96,0.5,0.5,0.5,1
79,2021-08-09T01:18:00,2.8,東北東,4.6,東北東,24.6,96,0.5,0.5,0.5,1
80,2021-08-09T01:19:00,2.7,東北東,4.6,東北東,24.6,96.1,0.5,0.5,0.5,1
81,2021-08-09T01:20:00,2.7,東北東,4.6,東北東,24.6,96.1,0.5,0.5,0.5,1
82,2021-08-09T01:21:00,2.5,東北東,4.6,東北東,24.6,96.2,1,1,1,1.5
83,2021-08-09T01:22:00,2.3,東北東,4.6,東北東,24.6,96.1,1,1,1,1.5
84,2021-08-09T01:23:00,2,東北東,4.6,東北東,24.7,96.2,1,1,1,1.5
85,2021-08-09T01:24:00,1.7,東北東,4.6,東北東,24.8,96.5,1,1,1,1.5
86,2021-08-09T01:25:00,1.5,東北東,4.6,東北東,24.7,96.2,1,1.5,1.5,2
87,2021-08-09T01:26:00,1.3,東北東,4.6,東北東,24.6,96,1,1.5,1.5,2
88,2021-08-09T01:27:00,1.2,東北東,4.3,北東,24.6,96,1,1.5,1.5,2
89,2021-08-09T01:28:00,1.1,東北東,2.9,東北東,24.6,96.1,1,1.5,1.5,2
90,2021-08-09T01:29:00,1.1,東北東,3.3,東北東,24.6,96.2,1,1.5,1.5,2
91,2021-08-09T01:30:00,1.2,東北東,3.9,東北東,24.6,96.2,1,1.5,1.5,2
92,2021-08-09T01:31:00,1.4,東北東,3.9,東北東,24.6,96.2,0.5,1.5,1.5,2
93,2021-08-09T01:32:00,1.7,東北東,3.9,東北東,24.6,96.2,0.5,1.5,1.5,2
94,2021-08-09T01:33:00,2,東北東,3.9,東北東,24.6,96.2,0.5,1.5,1.5,2
95,2021-08-09T01:34:00,2.2,東北東,3.9,東北東,24.6,96.2,0.5,1.5,1.5,2
96,2021-08-09T01:35:00,2.4,東北東,3.9,東北東,24.6,96.2,0,1.5,1.5,2
97,2021-08-09T01:36:00,2.5,東北東,3.9,東北東,24.6,96.2,0,1.5,1.5,2
98,2021-08-09T01:37:00,2.5,東北東,3.9,東北東,24.6,96.3,0,1.5,1.5,2
99,2021-08-09T01:38:00,2.6,東北東,3.9,東北東,24.6,96.3,0,1.5,1.5,2
100,2021-08-09T01:39:00,2.6,東北東,3.9,東北東,24.6,96.3,0,1.5,1.5,2
101,2021-08-09T01:40:00,2.4,東北東,3.9,東北東,24.6,96.2,0,1.5,1.5,2
102,2021-08-09T01:41:00,2.3,東北東,3.9,東北東,24.6,96.2,0,1.5,1.5,2
103,2021-08-09T01:42:00,2.2,東北東,3.9,東北東,24.6,96.3,0,1.5,1.5,2
104,2021-08-09T01:43:00,2.1,東北東,3.9,東北東,24.6,96.3,0,1.5,1.5,2
105,2021-08-09T01:44:00,2,東北東,3.1,東北東,24.6,96.3,0,1.5,1.5,2
106,2021-08-09T01:45:00,1.9,東北東,3,東北東,24.6,96.3,0,1.5,1.5,2
107,2021-08-09T01:46:00,1.9,東北東,3,東北東,24.6,96.3,0,1.5,1.5,2
108,2021-08-09T01:47:00,2,東北東,3.1,東北東,24.6,96.3,0,1.5,1.5,2
109,2021-08-09T01:48:00,2,東北東,3.3,東北東,24.6,96.4,0,1.5,1.5,2
110,2021-08-09T01:49:00,2,東北東,3.3,東北東,24.5,96.4,0,1.5,1.5,2
111,2021-08-09T01:50:00,2.1,東北東,4,北東,24.6,96.4,0,1.5,1.5,2
112,2021-08-09T01:51:00,2.1,東北東,4,北東,24.6,96.4,0,1.5,1.5,2
113,2021-08-09T01:52:00,2.2,東北東,4,北東,24.6,96.5,0,1.5,1.5,2
114,2021-08-09T01:53:00,2.1,東北東,4,北東,24.6,96.5,0,1.5,1.5,2
115,2021-08-09T01:54:00,2.1,東北東,4,北東,24.6,96.5,0,1.5,1.5,2
116,2021-08-09T01:55:00,2.2,東北東,4,北東,24.6,96.5,0,1.5,1.5,2
117,2021-08-09T01:56:00,2.3,東北東,4,北東,24.6,96.5,0,1.5,1.5,2
118,2021-08-09T01:57:00,2.3,東北東,4,北東,24.6,96.5,0,1.5,1.5,2
119,2021-08-09T01:58:00,2.2,東北東,4,北東,24.6,96.5,0,1.5,1.5,2
120,2021-08-09T01:59:00,2.1,東北東,4,北東,24.6,96.5,0,1.5,1.5,2
121,2021-08-09T02:00:00,2,東北東,3.9,東北東,24.6,96.5,0,1.5,1.5,2
122,2021-08-09T02:01:00,2,東北東,3.7,北東,24.6,96.5,0,1.5,1.5,2
123,2021-08-09T02:02:00,1.9,東北東,3.7,北東,24.6,96.5,0,1.5,1.5,2
124,2021-08-09T02:03:00,2,東北東,3.7,北東,24.6,96.5,0,1.5,1.5,2
125,2021-08-09T02:04:00,2,東北東,3.7,北東,24.6,96.5,0,1.5,1.5,2
126,2021-08-09T02:05:00,2,東北東,3.7,北東,24.6,96.5,0,1.5,1.5,2
127,2021-08-09T02:06:00,1.9,東北東,3.5,東北東,24.6,96.5,0,1.5,1.5,2
128,2021-08-09T02:07:00,1.8,東北東,3.5,東北東,24.6,96.5,0,1.5,1.5,2
129,2021-08-09T02:08:00,1.9,東北東,3.6,北東,24.6,96.5,0,1.5,1.5,2
130,2021-08-09T02:09:00,2,東北東,4.2,東北東,24.6,96.4,0,1.5,1.5,2
131,2021-08-09T02:10:00,2.1,東北東,4.2,東北東,24.7,96.4,0,1.5,1.5,2
132,2021-08-09T02:11:00,2.2,東北東,4.2,東北東,24.7,96.4,0,1.5,1.5,2
133,2021-08-09T02:12:00,2.2,東北東,4.2,東北東,24.7,96.4,0,1.5,1.5,2
134,2021-08-09T02:13:00,2.3,東北東,4.2,東北東,24.7,96.3,0,1.5,1.5,2
135,2021-08-09T02:14:00,2.3,東北東,4.2,東北東,24.7,96.3,0,1.5,1.5,2
136,2021-08-09T02:15:00,2.3,東北東,4.2,東北東,24.7,96.3,0,1,1.5,2
137,2021-08-09T02:16:00,2.4,東北東,4.2,東北東,24.7,96.3,0,1,1.5,2
138,2021-08-09T02:17:00,2.6,東北東,5.6,東北東,24.7,96.2,0,1,1.5,2
139,2021-08-09T02:18:00,2.6,東北東,5.6,東北東,24.7,96.2,0,1,1.5,2
140,2021-08-09T02:19:00,2.7,東北東,5.6,東北東,24.7,96.2,0,1,1.5,2
141,2021-08-09T02:20:00,2.8,東北東,5.6,東北東,24.7,96.2,0,1,1.5,2
142,2021-08-09T02:21:00,3,東北東,5.6,東北東,24.7,96.2,0,0.5,1.5,2
143,2021-08-09T02:22:00,3.1,東北東,5.6,東北東,24.8,96.2,0,0.5,1.5,2
144,2021-08-09T02:23:00,3.2,東北東,5.6,東北東,24.8,96.1,0,0.5,1.5,2
145,2021-08-09T02:24:00,3.3,東北東,5.6,東北東,24.8,96.1,0,0.5,1.5,2
146,2021-08-09T02:25:00,3.3,東北東,5.6,東北東,24.8,96.1,0.5,0.5,2,2.5
147,2021-08-09T02:26:00,3.5,東北東,5.6,東北東,24.8,96,0.5,0.5,2,2.5
148,2021-08-09T02:27:00,3.5,東北東,5.8,北東,24.8,96.1,1,1,2.5,3
149,2021-08-09T02:28:00,3.7,東北東,7,北東,24.7,96,1.5,1.5,3,3.5
150,2021-08-09T02:29:00,4,東北東,7,北東,24.7,95.9,2,2,3.5,4
151,2021-08-09T02:30:00,3.9,東北東,7,北東,24.6,96,2.5,2.5,4,4.5
152,2021-08-09T02:31:00,3.9,東北東,7,北東,24.6,96.1,2.5,2.5,4,4.5
153,2021-08-09T02:32:00,3.9,東北東,7,北東,24.6,96.1,2.5,2.5,4,4.5
154,2021-08-09T02:33:00,3.9,東北東,7,北東,24.6,96.2,3,3,4.5,5
155,2021-08-09T02:34:00,3.9,東北東,7,北東,24.7,96.2,3,3,4.5,5
156,2021-08-09T02:35:00,3.9,東北東,7,北東,24.6,96.2,2.5,3,4.5,5
157,2021-08-09T02:36:00,3.9,東北東,7,北東,24.6,96.2,2.5,3,4.5,5
158,2021-08-09T02:37:00,3.8,東北東,7,北東,24.6,96.2,2,3,4.5,5
159,2021-08-09T02:38:00,3.7,東北東,6.6,東北東,24.6,96.2,1.5,3,4.5,5
160,2021-08-09T02:39:00,3.5,東北東,6.1,東北東,24.6,96.3,1,3,4.5,5
161,2021-08-09T02:40:00,3.6,東北東,6.1,東北東,24.6,96.3,1,3.5,5,5.5
162,2021-08-09T02:41:00,3.6,東北東,6.1,東北東,24.6,96.3,1,3.5,5,5.5
163,2021-08-09T02:42:00,3.6,東北東,6.1,東北東,24.6,96.3,1,3.5,5,5.5
164,2021-08-09T02:43:00,3.6,東北東,6.1,東北東,24.6,96.4,0.5,3.5,5,5.5
165,2021-08-09T02:44:00,3.7,東北東,6.5,東北東,24.6,96.3,1,4,5.5,6
166,2021-08-09T02:45:00,3.7,東北東,6.5,東北東,24.6,96.3,1,4,5.5,6
167,2021-08-09T02:46:00,3.8,東北東,6.5,東北東,24.6,96.4,1,4,5.5,6
168,2021-08-09T02:47:00,3.8,東北東,6.5,東北東,24.6,96.4,1.5,4.5,6,6.5
169,2021-08-09T02:48:00,3.7,東北東,6.5,東北東,24.6,96.4,1.5,4.5,6,6.5
170,2021-08-09T02:49:00,3.7,東北東,6.5,東北東,24.6,96.4,1.5,4.5,6,6.5
171,2021-08-09T02:50:00,3.8,東北東,6.5,東北東,24.6,96.4,1,4.5,6,6.5
172,2021-08-09T02:51:00,3.8,東北東,6.5,東北東,24.6,96.5,1.5,5,6.5,7
173,2021-08-09T02:52:00,3.8,東北東,6.5,東北東,24.6,96.5,1.5,5,6.5,7
174,2021-08-09T02:53:00,3.8,東北東,6.5,東北東,24.6,96.5,1.5,5,6.5,7
175,2021-08-09T02:54:00,3.6,東北東,6.5,東北東,24.7,96.5,1,5,6.5,7
176,2021-08-09T02:55:00,3.6,東北東,6.5,東北東,24.7,96.5,1,5,6.5,7
177,2021-08-09T02:56:00,3.5,東北東,6.5,東北東,24.7,96.4,1,5,6.5,7
178,2021-08-09T02:57:00,3.2,東北東,5.8,東北東,24.7,96.3,0.5,5,6.5,7
179,2021-08-09T02:58:00,3.1,東北東,5.8,東北東,24.7,96.3,1,5.5,7,7.5
180,2021-08-09T02:59:00,3.1,東北東,5.8,東北東,24.7,96.3,1,5.5,7,7.5
181,2021-08-09T03:00:00,3,東北東,5.8,東北東,24.8,96.2,1,5.5,7,7.5
182,2021-08-09T03:01:00,3,東北東,5.3,東北東,24.8,96.2,0.5,5.5,7,7.5
183,2021-08-09T03:02:00,3.1,東北東,6.6,東北東,24.8,96.2,0.5,5.5,7,7.5
184,2021-08-09T03:03:00,3.1,東北東,6.6,東北東,24.8,96.1,0.5,5.5,7,7.5
185,2021-08-09T03:04:00,3.3,東北東,6.6,東北東,24.8,96.1,0.5,5.5,7,7.5
186,2021-08-09T03:05:00,3.4,東北東,6.6,東北東,24.8,96,0.5,5.5,7,7.5
187,2021-08-09T03:06:00,3.6,東北東,6.6,東北東,24.8,96,0.5,5.5,7,7.5
188,2021-08-09T03:07:00,3.8,東北東,6.6,東北東,24.8,95.9,0.5,5.5,7,7.5
189,2021-08-09T03:08:00,4.1,東北東,6.6,東北東,24.8,95.8,0,5.5,7,7.5
190,2021-08-09T03:09:00,4.2,東北東,6.6,東北東,24.8,95.8,0,5.5,7,7.5
191,2021-08-09T03:10:00,4.3,東北東,6.6,東北東,24.8,95.8,0,5.5,7,7.5
192,2021-08-09T03:11:00,4.3,東北東,6.6,東北東,24.8,95.8,0,5.5,7,7.5
193,2021-08-09T03:12:00,4.2,東北東,6.3,東北東,24.8,95.8,0,5.5,7,7.5
194,2021-08-09T03:13:00,4.3,東北東,6.3,東北東,24.7,95.8,0,5.5,7,7.5
195,2021-08-09T03:14:00,4.3,東北東,6.3,東北東,24.7,95.8,0,5.5,7,7.5
196,2021-08-09T03:15:00,4.3,東北東,6.4,東北東,24.7,95.8,0,5.5,7,7.5
197,2021-08-09T03:16:00,4.3,東北東,6.4,東北東,24.7,95.8,0,5.5,7,7.5
198,2021-08-09T03:17:00,4.2,東北東,6.4,東北東,24.7,95.9,0.5,6,7.5,8
199,2021-08-09T03:18:00,4.3,東北東,6.4,東北東,24.7,95.9,0.5,6,7.5,8
200,2021-08-09T03:19:00,4.3,東北東,6.4,東北東,24.7,95.9,0.5,6,7.5,8
201,2021-08-09T03:20:00,4.2,東北東,6.4,東北東,24.7,95.9,0.5,6,7.5,8
202,2021-08-09T03:21:00,4.1,東北東,6.4,東北東,24.7,95.9,1,6.5,8,8.5
203,2021-08-09T03:22:00,4,東北東,6.4,東北東,24.7,95.9,1.5,7,8.5,9
204,2021-08-09T03:23:00,3.9,東北東,6.4,東北東,24.7,95.9,1.5,7,8.5,9
205,2021-08-09T03:24:00,3.9,東北東,6.4,東北東,24.7,95.9,2,7.5,9,9.5
206,2021-08-09T03:25:00,3.8,東北東,6.2,東北東,24.6,95.9,2.5,7.5,9.5,10
207,2021-08-09T03:26:00,3.8,東北東,6.1,東北東,24.6,96,2.5,7.5,9.5,10
208,2021-08-09T03:27:00,3.7,東北東,6.1,東北東,24.6,96,2.5,7.5,10,10.5
209,2021-08-09T03:28:00,3.6,東北東,5.9,北東,24.6,96.1,2.5,7,10,10.5
210,2021-08-09T03:29:00,3.5,東北東,5.9,北東,24.6,96.2,2.5,6.5,10,10.5
211,2021-08-09T03:30:00,3.6,東北東,6.6,東北東,24.6,96.2,2.5,6,10,10.5
212,2021-08-09T03:31:00,3.7,東北東,6.6,東北東,24.6,96.2,2,6,10,10.5
213,2021-08-09T03:32:00,3.7,東北東,6.6,東北東,24.6,96.2,1.5,6,10,10.5
214,2021-08-09T03:33:00,3.7,東北東,6.6,東北東,24.6,96.2,2,6,10.5,11
215,2021-08-09T03:34:00,3.6,東北東,6.6,東北東,24.6,96.3,1.5,6,10.5,11
216,2021-08-09T03:35:00,3.7,東北東,6.6,東北東,24.6,96.3,1,6,10.5,11
217,2021-08-09T03:36:00,3.6,東北東,6.6,東北東,24.7,96.3,1,6,10.5,11
218,2021-08-09T03:37:00,3.7,東北東,6.6,東北東,24.7,96.3,0.5,6,10.5,11
219,2021-08-09T03:38:00,3.7,東北東,6.6,東北東,24.7,96.3,0.5,6,10.5,11
220,2021-08-09T03:39:00,3.9,東北東,6.6,東北東,24.7,96.3,0.5,6,10.5,11
221,2021-08-09T03:40:00,3.9,東北東,6.3,東北東,24.7,96.3,0.5,5.5,10.5,11
222,2021-08-09T03:41:00,3.9,東北東,6.3,東北東,24.7,96.3,0.5,5.5,10.5,11
223,2021-08-09T03:42:00,4,東北東,6.3,東北東,24.7,96.2,0.5,5.5,10.5,11
224,2021-08-09T03:43:00,3.8,東北東,6,東北東,24.8,96.2,0,5.5,10.5,11
225,2021-08-09T03:44:00,3.7,東北東,6,東北東,24.8,96.2,0,5,10.5,11
226,2021-08-09T03:45:00,3.6,東北東,6,東北東,24.8,96.1,0,5,10.5,11
227,2021-08-09T03:46:00,3.5,東北東,6,東北東,24.7,96.1,0,5,10.5,11
228,2021-08-09T03:47:00,3.4,東北東,6,東北東,24.7,96.1,0,4.5,10.5,11
229,2021-08-09T03:48:00,3.3,東北東,6,東北東,24.7,96,0,4.5,10.5,11
230,2021-08-09T03:49:00,3.1,東北東,6,東北東,24.7,96,0,4.5,10.5,11
231,2021-08-09T03:50:00,3.2,東北東,6.7,東北東,24.8,96,0,4.5,10.5,11
232,2021-08-09T03:51:00,3.3,東北東,7.4,東北東,24.9,96,0,4,10.5,11
233,2021-08-09T03:52:00,3.4,東北東,7.4,東北東,24.9,96,0,4,10.5,11
234,2021-08-09T03:53:00,3.6,東北東,7.4,東北東,24.9,95.9,0,4,10.5,11
235,2021-08-09T03:54:00,3.8,東北東,7.4,東北東,24.9,95.7,0,4,10.5,11
236,2021-08-09T03:55:00,4,東北東,7.4,東北東,24.9,95.7,0,4,10.5,11
237,2021-08-09T03:56:00,4.2,東北東,7.4,東北東,24.8,95.6,0,4,10.5,11
238,2021-08-09T03:57:00,4.3,東北東,7.4,東北東,24.8,95.6,0,4,10.5,11
239,2021-08-09T03:58:00,4.4,東北東,7.4,東北東,24.8,95.6,0,3.5,10.5,11
240,2021-08-09T03:59:00,4.4,東北東,7.4,東北東,24.8,95.6,0,3.5,10.5,11
241,2021-08-09T04:00:00,4.3,東北東,7.4,東北東,24.8,95.7,0,3.5,10.5,11
242,2021-08-09T04:01:00,4.2,東北東,6.8,東南東,25,95.7,0,3.5,10.5,11
243,2021-08-09T04:02:00,4,東北東,6.8,東南東,24.9,95.6,0,3.5,10.5,11
244,2021-08-09T04:03:00,3.8,東北東,6.8,東南東,24.9,95.5,0,3.5,10.5,11
245,2021-08-09T04:04:00,3.5,東北東,6.8,東南東,24.8,95.5,0,3.5,10.5,11
246,2021-08-09T04:05:00,3.3,東北東,6.8,東南東,24.8,95.5,0,3.5,10.5,11
247,2021-08-09T04:06:00,3.2,東北東,6.8,東南東,24.8,95.5,0,3.5,10.5,11
248,2021-08-09T04:07:00,3.1,東北東,6.8,東南東,24.8,95.5,0,3.5,10.5,11
249,2021-08-09T04:08:00,3.1,東北東,6.8,東南東,24.9,95.6,0,3.5,10.5,11
250,2021-08-09T04:09:00,3.1,東北東,6.8,東南東,24.9,95.6,0,3.5,10.5,11
251,2021-08-09T04:10:00,3.1,東北東,6.8,東南東,24.9,95.6,0,3.5,10.5,11
252,2021-08-09T04:11:00,2.9,東北東,5.4,北東,25,95.5,0,3.5,10.5,11
253,2021-08-09T04:12:00,2.8,北東,5.4,北東,25,95.4,0,3.5,10.5,11
254,2021-08-09T04:13:00,2.8,北東,5.4,北東,24.9,95.3,0,3.5,10.5,11
255,2021-08-09T04:14:00,2.9,北東,5.4,北東,24.9,95.3,0.5,4,11,11.5
256,2021-08-09T04:15:00,2.9,北東,5.4,北東,24.9,95.3,0.5,4,11,11.5
257,2021-08-09T04:16:00,2.7,北東,5.4,北東,24.9,95.3,0.5,4,11,11.5
258,2021-08-09T04:17:00,2.6,東北東,5.4,北東,24.9,95.3,0.5,3.5,11,11.5
259,2021-08-09T04:18:00,2.3,東北東,5.3,北東,24.9,95.2,0.5,3.5,11,11.5
260,2021-08-09T04:19:00,2.2,東北東,5.3,北東,24.9,95.3,0.5,3.5,11,11.5
261,2021-08-09T04:20:00,2,東北東,5.3,北東,25,95.6,0.5,3.5,11,11.5
262,2021-08-09T04:21:00,1.9,東北東,5.3,北東,24.9,95.3,0.5,3,11,11.5
263,2021-08-09T04:22:00,1.8,東北東,5.3,北東,24.8,95.3,0.5,2.5,11,11.5
264,2021-08-09T04:23:00,1.7,東北東,5.3,北東,24.7,95.3,0.5,2.5,11,11.5
265,2021-08-09T04:24:00,1.7,東北東,4,北東,24.7,95.4,0,2,11,11.5
266,2021-08-09T04:25:00,1.7,東北東,4,北東,24.7,95.6,0.5,2,11.5,12
267,2021-08-09T04:26:00,1.9,東北東,4.8,東北東,24.7,95.6,0.5,2,11.5,12
268,2021-08-09T04:27:00,2,東北東,4.8,東北東,24.7,95.7,0.5,1.5,11.5,12
269,2021-08-09T04:28:00,2.1,東北東,4.8,東北東,24.6,95.8,0.5,1.5,11.5,12
270,2021-08-09T04:29:00,2.1,東北東,4.8,東北東,24.6,95.8,0.5,1.5,11.5,12
271,2021-08-09T04:30:00,2.1,東北東,4.8,東北東,24.6,95.9,0.5,1.5,11.5,12
272,2021-08-09T04:31:00,2.2,東北東,4.8,東北東,24.6,95.9,0.5,1.5,11.5,12
273,2021-08-09T04:32:00,2.4,北東,4.8,東北東,24.6,96,1,2,12,12.5
274,2021-08-09T04:33:00,2.6,北東,4.8,東北東,24.5,96.1,1,1.5,12,12.5
275,2021-08-09T04:34:00,2.5,北東,4.8,東北東,24.5,96.2,1,1.5,12,12.5
276,2021-08-09T04:35:00,2.5,北東,4.8,東北東,24.6,96.3,0.5,1.5,12,12.5
277,2021-08-09T04:36:00,2.3,北東,4.3,北東,24.5,96.3,0.5,1.5,12,12.5
278,2021-08-09T04:37:00,2.3,北東,5.8,北東,24.6,96.4,0.5,1.5,12,12.5
279,2021-08-09T04:38:00,2.4,北東,5.8,北東,24.6,96.4,0.5,1.5,12,12.5
280,2021-08-09T04:39:00,2.6,北東,5.8,北東,24.6,96.4,0.5,1.5,12,12.5
281,2021-08-09T04:40:00,2.6,北東,5.8,北東,24.6,96.5,0.5,1.5,12,12.5
282,2021-08-09T04:41:00,2.7,北東,5.8,北東,24.7,96.5,0.5,1.5,12,12.5
283,2021-08-09T04:42:00,2.7,北東,5.8,北東,24.7,96.4,0,1.5,12,12.5
284,2021-08-09T04:43:00,2.7,北東,5.8,北東,24.7,96.5,0,1.5,12,12.5
285,2021-08-09T04:44:00,2.7,北東,5.8,北東,24.7,96.5,0,1.5,12,12.5
286,2021-08-09T04:45:00,2.7,北東,5.8,北東,24.8,96.6,0,1.5,12,12.5
287,2021-08-09T04:46:00,2.7,北東,5.8,北東,24.9,96.6,0,1.5,12,12.5
288,2021-08-09T04:47:00,2.6,北東,4.2,北東,24.9,96.5,0.5,2,12.5,13
289,2021-08-09T04:48:00,2.6,北東,4.3,北北東,24.9,96.4,0.5,2,12.5,13
290,2021-08-09T04:49:00,2.5,北東,4.3,北北東,24.9,96.3,0.5,2,12.5,13
291,2021-08-09T04:50:00,2.3,北東,4.3,北北東,24.9,96.2,0.5,2,12.5,13
292,2021-08-09T04:51:00,2.3,北東,4.3,北北東,25.1,96.3,0.5,2,12.5,13
293,2021-08-09T04:52:00,2.4,北東,4.7,北北東,25.1,96.1,0.5,2,12.5,13
294,2021-08-09T04:53:00,2.4,北東,4.7,北北東,25.1,96.1,0.5,2,12.5,13
295,2021-08-09T04:54:00,2.4,北東,4.7,北北東,25.3,96.1,0.5,2,12.5,13
296,2021-08-09T04:55:00,2.5,北東,6.3,西,25.6,96.1,0.5,2,12.5,13
297,2021-08-09T04:56:00,2.7,北東,7.3,南西,26,96,0.5,2,12.5,13
298,2021-08-09T04:57:00,2.8,北東,7.3,南西,26.2,95.4,0,2,12.5,13
299,2021-08-09T04:58:00,2.9,東北東,7.3,南西,26.2,94.2,0,2,12.5,13
300,2021-08-09T04:59:00,3,東北東,7.3,南西,26.3,92.7,0,2,12.5,13
301,2021-08-09T05:00:00,3,東北東,7.3,南西,26.3,91.5,0.5,2.5,13,13.5
302,2021-08-09T05:01:00,2.9,東,7.3,南西,26.3,90.6,0.5,2.5,13,13.5
303,2021-08-09T05:02:00,2.9,東,7.3,南西,26.2,89.8,0.5,2.5,13,13.5
304,2021-08-09T05:03:00,2.9,東,7.3,南西,26.3,89.5,0.5,2.5,13,13.5
305,2021-08-09T05:04:00,2.8,東南東,7.3,南西,26.4,89.3,0.5,2.5,13,13.5
306,2021-08-09T05:05:00,2.8,東南東,7.3,南西,26.3,88.8,0.5,2.5,13,13.5
307,2021-08-09T05:06:00,2.6,東南東,6.4,東北東,26.2,88.6,0.5,2.5,13,13.5
308,2021-08-09T05:07:00,2.4,東南東,6,南東,26.3,88.8,0.5,2.5,13,13.5
309,2021-08-09T05:08:00,2.3,南東,6,南東,26.5,88.7,1,3,13.5,14
310,2021-08-09T05:09:00,2.4,南東,8,南南東,26.4,88.3,1,3,13.5,14
311,2021-08-09T05:10:00,2.6,南東,8,南南東,26.4,88.2,0.5,3,13.5,14
312,2021-08-09T05:11:00,2.6,南東,8,南南東,26.5,88,0.5,3,13.5,14
313,2021-08-09T05:12:00,2.6,南南東,8,南南東,26.4,87.7,0.5,3,13.5,14
314,2021-08-09T05:13:00,2.5,南南東,8,南南東,26.6,87.6,0.5,3,13.5,14
315,2021-08-09T05:14:00,2.5,南南東,8,南南東,26.4,86.9,0.5,2.5,13.5,14
316,2021-08-09T05:15:00,2.5,南東,8,南南東,26.3,86.9,0.5,2.5,13.5,14
317,2021-08-09T05:16:00,2.6,南東,8,南南東,26.2,87.2,0.5,2.5,13.5,14
318,2021-08-09T05:17:00,2.5,東南東,8,南南東,26.1,87.8,0.5,2.5,13.5,14
319,2021-08-09T05:18:00,2.4,東,8,南南東,26,88.3,0,2.5,13.5,14
320,2021-08-09T05:19:00,2.4,東,6.8,南南東,26,88.6,0,2.5,13.5,14
321,2021-08-09T05:20:00,2.4,東,8.7,南,26.1,89.2,0,2.5,13.5,14
322,2021-08-09T05:21:00,3,東,14.4,南,26.4,89.3,0,2.5,13.5,14
323,2021-08-09T05:22:00,3.1,東,14.4,南,26.5,88.5,0,2.5,13.5,14
324,2021-08-09T05:23:00,3.4,東,14.4,南,26.8,87.6,0,2.5,13.5,14
325,2021-08-09T05:24:00,3.8,東南東,14.4,南,27.1,86.1,0,2.5,13.5,14
326,2021-08-09T05:25:00,4,南東,14.4,南,27.2,84.2,0,2,13.5,14
327,2021-08-09T05:26:00,4,南東,14.4,南,26.9,83.6,0,2,13.5,14
328,2021-08-09T05:27:00,4.2,南東,14.4,南,26.8,83.8,0,2,13.5,14
329,2021-08-09T05:28:00,4.7,南東,14.4,南,27,84.2,0,2,13.5,14
330,2021-08-09T05:29:00,4.8,南南東,14.4,南,26.9,83.7,0,2,13.5,14
331,2021-08-09T05:30:00,4.9,南南東,14.4,南,26.8,83.6,0,2,13.5,14
332,2021-08-09T05:31:00,4.6,南東,10.9,南,26.7,83.8,0,2,13.5,14
333,2021-08-09T05:32:00,4.7,南東,10.9,南,26.6,84.4,0,1.5,13.5,14
334,2021-08-09T05:33:00,4.9,南東,10.9,南,26.7,85,0,1.5,13.5,14
335,2021-08-09T05:34:00,4.6,南東,10.6,南,27,84.7,0,1.5,13.5,14
336,2021-08-09T05:35:00,4.5,南東,10.6,南,27.1,84,0,1.5,13.5,14
337,2021-08-09T05:36:00,4.4,南東,10,東南東,27.2,83.3,0,1.5,13.5,14
338,2021-08-09T05:37:00,4.6,南東,10.3,南東,27.3,82.4,0,1.5,13.5,14
339,2021-08-09T05:38:00,4.2,南東,10.3,南東,27.2,82,0,1.5,13.5,14
340,2021-08-09T05:39:00,4.1,南東,10.3,南東,27.4,81.8,0,1.5,13.5,14
341,2021-08-09T05:40:00,4,南東,10.3,南東,27.4,80.9,0,1.5,13.5,14
342,2021-08-09T05:41:00,3.9,南東,10.3,南東,27.3,80.7,0,1.5,13.5,14
343,2021-08-09T05:42:00,3.5,南東,10.3,南東,27.2,81.2,0,1.5,13.5,14
344,2021-08-09T05:43:00,3,東南東,10.3,南東,27.1,81.6,0,1.5,13.5,14
345,2021-08-09T05:44:00,2.9,東南東,10.3,南東,27,82.1,0,1.5,13.5,14
346,2021-08-09T05:45:00,2.8,東南東,10.3,南東,26.8,82.3,0,1.5,13.5,14
347,2021-08-09T05:46:00,2.6,東南東,10.3,南東,26.7,83.3,0,1.5,13.5,14
348,2021-08-09T05:47:00,2.4,東南東,10,南南西,26.6,84.4,0,1,13.5,14
349,2021-08-09T05:48:00,2.4,東南東,10,南南西,26.8,84.8,0,1,13.5,14
350,2021-08-09T05:49:00,2.2,東南東,8,南南東,27,84.4,0,1,13.5,14
351,2021-08-09T05:50:00,1.9,東南東,5.8,南東,27,83.9,0,1,13.5,14
352,2021-08-09T05:51:00,2.2,東南東,8.4,南東,26.9,83.8,0,1,13.5,14
353,2021-08-09T05:52:00,2.3,東南東,8.4,南東,26.9,84,0,1,13.5,14
354,2021-08-09T05:53:00,2.4,東南東,8.4,南東,26.8,83.9,0,1,13.5,14
355,2021-08-09T05:54:00,2.3,東南東,8.4,南東,26.7,84.2,0,1,13.5,14
356,2021-08-09T05:55:00,2.2,東南東,8.4,南東,26.6,84.7,0,1,13.5,14
357,2021-08-09T05:56:00,2.3,東南東,8.4,南東,26.4,85.3,0,1,13.5,14
358,2021-08-09T05:57:00,2.1,東南東,8.4,南東,26.6,85.9,0,1,13.5,14
359,2021-08-09T05:58:00,2.1,東,8.4,南東,26.6,85.9,0,1,13.5,14
360,2021-08-09T05:59:00,2.2,東北東,8.4,南東,26.7,85.6,0,1,13.5,14
361,2021-08-09T06:00:00,2.4,東北東,8.4,南東,26.7,85.4,0,0.5,13.5,14
362,2021-08-09T06:01:00,2.2,北東,5.3,北,26.7,85.5,0,0.5,13.5,14
363,2021-08-09T06:02:00,2.1,北東,5.3,北,26.7,85.6,0,0.5,13.5,14
364,2021-08-09T06:03:00,2,北北東,5.3,北,26.6,85.6,0,0.5,13.5,14
365,2021-08-09T06:04:00,2.4,北東,7.3,東,26.6,85.8,0,0.5,13.5,14
366,2021-08-09T06:05:00,2.7,北東,8.5,東南東,26.6,85.8,0,0.5,13.5,14
367,2021-08-09T06:06:00,2.8,東北東,8.5,東南東,26.5,85.7,0,0.5,13.5,14
368,2021-08-09T06:07:00,2.8,東北東,8.5,東南東,26.4,86.2,0,0.5,13.5,14
369,2021-08-09T06:08:00,2.9,東北東,8.5,東南東,26.2,86.8,0.5,0.5,14,14.5
370,2021-08-09T06:09:00,2.9,東,8.5,東南東,26.2,87.4,0.5,0.5,14,14.5
371,2021-08-09T06:10:00,2.8,東,8.5,東南東,26.2,88,0.5,0.5,14,14.5
372,2021-08-09T06:11:00,2.6,東,8.5,東南東,26.1,88.4,0.5,0.5,14,14.5
373,2021-08-09T06:12:00,2.7,東,8.5,東南東,26,88.9,0.5,0.5,14,14.5
374,2021-08-09T06:13:00,3.1,東,8.8,東南東,26,89.4,0.5,0.5,14,14.5
375,2021-08-09T06:14:00,3,東,8.8,東南東,26.1,89.9,0.5,0.5,14,14.5
376,2021-08-09T06:15:00,2.7,東,8.8,東南東,26.1,89.8,0.5,0.5,14,14.5
377,2021-08-09T06:16:00,2.8,東,8.8,東南東,26,89.8,1,1,14.5,15
378,2021-08-09T06:17:00,2.9,東,8.8,東南東,26,90.2,1,1,14.5,15
379,2021-08-09T06:18:00,3.1,東,8.8,東南東,26.1,90.4,0.5,1,14.5,15
380,2021-08-09T06:19:00,3.2,東南東,8.8,東南東,26.2,90.4,0.5,1,14.5,15
381,2021-08-09T06:20:00,3.2,東南東,8.8,東南東,26.1,90.1,0.5,1,14.5,15
382,2021-08-09T06:21:00,3.3,東南東,8.8,東南東,26,90.1,0.5,1,14.5,15
383,2021-08-09T06:22:00,3.3,東南東,8.8,東南東,25.9,90.3,0.5,1,14.5,15
384,2021-08-09T06:23:00,3,東南東,8.6,南東,26,90.7,0.5,1,14.5,15
385,2021-08-09T06:24:00,2.8,東南東,7.1,東南東,26,90.7,1,1.5,15,15.5
386,2021-08-09T06:25:00,2.7,東南東,7.1,東南東,26,90.5,1,1.5,15,15.5
387,2021-08-09T06:26:00,2.5,東,7.1,東南東,25.9,90.6,0.5,1.5,15,15.5
388,2021-08-09T06:27:00,2.8,東,12,東南東,25.9,90.9,0.5,1.5,15,15.5
389,2021-08-09T06:28:00,3,東,12,東南東,26.1,91.2,0.5,1.5,15,15.5
390,2021-08-09T06:29:00,2.8,東,12,東南東,26.3,90.8,0.5,1.5,15,15.5
391,2021-08-09T06:30:00,2.9,東,12,東南東,26.5,89.9,0.5,1.5,15,15.5
392,2021-08-09T06:31:00,3,東南東,12,東南東,26.4,89,0.5,1.5,15,15.5
393,2021-08-09T06:32:00,3.3,東南東,14.3,南南東,26.5,88.5,0.5,1.5,15,15.5